GFSGBSN_250_rhum_024.txt.gz
RH
58 49 56 61 88 99 72 65 60 55 42 48 39 57 47 46 46 44 37 35 29 28 31 44 36 26 21 19 20 22 30 43 50 59 73 86 79 71 91 99 93 100 99 100 95 91 92
44 60 62 78 80 80 72 64 72 51 41 42 50 58 56 51 44 36 39 35 29 27 36 33 20 16 15 15 15 16 23 34 43 61 61 73 64 86 99 100 95 98 100 100 100 100 100
54 70 75 88 89 79 94 92 65 51 40 45 60 59 46 49 40 33 36 37 33 31 29 17 14 14 14 14 14 14 18 25 47 56 76 64 84 100 100 100 100 100 100 100 100 100 100
56 58 73 100 96 88 72 60 62 47 47 71 87 74 52 56 39 35 34 30 31 29 17 13 14 16 15 15 14 15 16 27 53 64 58 79 98 100 100 100 100 100 100 100 100 100 100
63 81 87 95 97 90 70 64 63 48 56 74 97 89 74 54 40 36 32 30 28 23 14 15 16 16 16 14 14 15 17 40 56 51 70 100 100 100 100 100 100 100 100 100 100 98 97
53 85 83 77 68 61 61 67 57 57 60 87 100 94 92 62 39 35 35 25 26 14 14 16 18 18 17 17 16 16 19 34 39 54 94 100 100 100 100 100 100 100 100 99 100 100 98
57 85 87 81 71 65 51 48 62 74 96 100 100 96 100 77 40 36 35 26 24 13 15 17 21 20 20 20 22 22 23 29 49 93 100 100 100 100 100 100 100 100 100 100 100 100 100
71 84 84 70 61 55 54 59 78 81 98 100 89 100 100 60 40 36 40 25 23 13 15 19 20 21 23 24 31 38 46 68 87 97 99 100 100 100 100 98 100 100 100 100 100 100 100
45 45 68 69 56 63 67 80 77 90 99 100 100 95 96 76 37 39 42 26 19 13 16 20 21 21 24 26 32 51 75 83 86 87 94 99 97 100 100 100 100 100 100 100 100 100 84
60 58 54 54 68 82 93 88 100 100 100 92 100 98 100 79 39 40 40 26 16 16 19 21 20 21 23 33 32 40 57 69 86 83 76 83 87 82 81 84 87 93 90 84 72 42 17
81 82 80 82 78 77 63 90 100 100 70 83 88 90 100 73 40 46 35 27 15 17 20 18 16 16 18 29 48 52 52 59 60 62 63 57 48 31 17 17 24 26 28 17 10 8 10
45 61 64 66 59 68 62 86 96 100 98 74 91 98 100 82 50 49 32 24 16 20 19 16 15 16 16 17 20 30 36 37 34 31 27 21 17 17 16 14 11 8 9 9 14 21 27
31 31 35 36 40 46 42 75 100 100 74 78 100 99 79 89 54 44 32 20 19 20 18 18 18 17 16 16 16 16 15 16 14 12 10 9 8 7 7 6 7 14 26 65 73 57 49
24 30 37 32 53 67 49 55 99 100 89 100 100 96 66 59 62 44 30 18 22 21 18 23 23 20 16 16 16 16 14 12 10 11 8 11 18 19 29 42 59 76 69 53 47 31 22
18 30 45 46 68 53 49 70 97 98 97 100 72 63 55 62 66 40 32 19 31 23 27 28 30 25 24 24 28 36 36 41 40 41 36 36 41 48 58 57 52 47 29 24 22 22 34
14 24 36 35 46 78 64 52 100 82 66 74 39 59 49 65 59 40 33 26 51 45 55 55 56 51 42 48 47 49 50 46 47 41 38 41 43 38 38 30 22 20 22 27 36 44 40
8 11 14 16 27 36 73 98 99 50 35 36 40 58 61 74 55 49 39 63 81 73 77 74 56 53 49 46 44 38 33 27 23 21 21 21 21 21 21 21 21 27 48 46 42 45 54
6 7 9 12 15 18 24 33 43 40 30 31 41 64 65 77 54 63 53 90 98 80 87 56 52 55 39 29 24 23 24 29 34 34 29 29 28 26 23 29 54 54 44 45 55 61 62
3 4 6 9 12 11 15 19 25 26 26 32 46 66 80 78 81 79 74 98 93 82 74 48 49 40 24 25 29 36 42 46 40 30 26 25 26 32 52 50 44 46 53 58 63 63 64
3 3 4 6 9 9 12 14 17 22 30 39 53 76 78 65 99 77 91 100 94 75 52 50 40 26 25 35 49 52 50 46 35 30 33 45 60 55 50 56 60 65 67 68 67 66 65
3 3 4 5 6 6 9 11 15 18 24 41 65 69 66 91 100 80 96 100 93 67 50 48 33 25 29 42 48 54 59 48 42 62 70 62 54 60 68 74 78 82 83 79 75 71 67
3 3 4 5 4 5 7 11 13 15 20 41 76 67 90 100 99 87 95 100 93 62 50 42 26 30 30 40 47 62 65 52 66 81 67 62 71 77 85 88 90 98 98 75 76 72 72
2 3 4 4 4 7 9 12 13 17 19 50 71 84 96 100 98 85 99 100 93 62 53 51 25 36 34 39 51 68 63 70 81 91 77 69 72 84 89 96 100 100 77 82 78 70 61
2 3 3 4 8 9 11 12 14 20 27 57 70 89 100 100 83 94 100 99 89 59 54 49 30 41 39 41 51 63 67 76 84 83 74 70 74 81 92 96 100 100 90 69 64 68 63
2 3 4 7 9 9 12 13 16 21 39 54 74 90 100 100 78 100 100 91 83 58 55 42 44 45 43 45 55 70 73 76 83 79 74 79 84 95 96 82 99 100 100 93 75 76 59
3 4 6 7 10 11 13 16 18 26 46 56 72 78 98 97 94 100 100 86 79 53 63 56 61 56 48 50 62 74 76 78 83 79 81 84 82 82 85 82 95 96 87 75 73 70 96
6 8 9 11 12 14 15 18 22 29 43 58 67 75 98 98 100 100 97 89 71 61 84 67 63 61 54 50 70 79 81 84 87 88 88 88 90 90 77 75 81 75 75 73 74 82 95
9 10 11 14 14 16 16 18 20 28 46 49 62 74 92 95 100 100 95 87 67 79 88 76 61 71 63 50 62 69 77 79 85 79 79 74 68 68 70 73 63 66 70 85 96 98 97
11 14 15 17 17 18 18 21 23 30 45 47 52 70 89 96 100 100 93 72 63 67 80 65 60 67 74 62 63 56 75 79 70 78 72 71 63 67 68 73 65 69 68 73 92 100 92

GFSGBSN_250_rhum_030.txt.gz
RH
100 82 94 100 100 99 100 100 100 97 76 66 72 68 54 39 72 86 72 71 77 56 49 54 40 35 32 20 15 16 15 14 17 23 34 56 56 100 89 89 86 84 83 84 100 100 61
100 95 83 100 100 100 100 100 97 89 76 73 74 76 60 46 52 71 83 81 74 57 40 50 42 35 35 17 15 19 18 15 17 25 45 62 59 99 100 100 99 100 100 100 100 100 100
100 100 100 100 100 100 100 100 100 92 91 77 78 72 66 45 44 82 86 80 74 58 48 41 46 32 30 15 17 18 17 18 16 24 40 60 63 94 100 98 92 100 100 100 100 100 100
100 100 100 100 100 100 100 100 99 92 81 75 83 71 57 52 49 92 89 91 74 49 48 36 52 41 31 17 19 19 17 18 16 26 46 67 94 100 100 97 99 100 100 100 100 100 100
100 86 65 95 96 88 95 97 94 97 87 72 74 70 61 63 40 47 94 100 75 50 56 38 40 40 33 20 20 20 19 18 17 33 51 75 98 100 99 90 100 100 100 99 100 100 100
65 74 55 60 53 47 47 55 60 80 80 91 73 63 61 53 42 48 72 81 77 47 62 46 42 38 30 22 21 22 18 17 19 34 66 86 100 100 98 100 100 100 100 100 100 100 100
90 80 68 66 78 68 59 55 50 58 75 74 70 55 62 46 42 54 71 68 72 57 77 56 50 45 29 20 22 24 19 18 22 44 76 86 100 100 100 100 100 100 96 100 88 99 100
61 66 66 42 35 49 44 41 46 58 59 62 71 49 51 51 43 54 80 63 75 57 73 58 44 46 29 24 22 26 22 19 36 53 72 88 96 96 100 100 100 100 100 98 97 90 94
29 33 26 25 27 26 27 35 38 40 59 55 94 60 41 46 47 55 62 65 55 67 66 70 54 52 32 25 22 25 28 22 40 56 75 88 97 100 100 100 100 100 97 85 90 98 100
44 41 44 32 28 35 34 29 26 27 30 49 62 42 43 42 51 61 62 72 46 64 60 62 50 92 34 27 21 25 34 29 44 53 60 84 100 100 100 100 100 100 92 89 82 92 96
31 41 39 35 32 35 39 38 32 29 33 39 37 35 37 44 45 64 57 64 74 72 58 54 62 74 42 29 20 27 33 38 38 38 47 91 98 93 100 100 94 90 90 96 98 99 100
61 59 69 70 63 58 67 44 48 53 44 35 34 37 38 49 51 69 58 92 66 88 93 57 50 59 45 27 20 22 35 43 72 93 97 96 91 100 93 94 88 92 87 90 100 100 100
97 85 92 100 100 100 88 67 56 51 51 41 33 45 45 61 56 82 83 91 70 98 72 72 58 58 37 32 19 19 28 41 55 75 100 92 96 93 100 96 98 98 89 98 100 100 90
69 83 86 93 100 80 55 69 51 59 48 48 43 49 67 89 71 67 84 86 88 89 95 78 64 65 35 30 20 18 21 38 52 64 72 76 97 100 91 86 97 85 79 82 70 53 57
35 40 42 54 58 60 65 46 45 64 65 64 44 70 74 100 94 81 68 92 100 66 100 81 79 84 36 31 21 21 20 24 42 52 58 72 80 79 78 76 72 48 29 22 34 49 67
25 27 26 37 42 45 46 43 41 39 43 60 53 91 88 100 99 74 82 78 100 84 99 88 82 51 37 30 23 26 24 27 24 36 52 54 68 46 45 39 31 31 49 36 81 77 84
17 22 29 28 28 33 40 37 51 46 53 75 85 100 100 100 100 79 78 81 83 99 98 82 68 61 39 29 24 29 25 25 25 32 35 21 25 22 20 17 17 31 26 58 73 70 42
9 13 17 28 27 27 38 50 47 48 65 84 100 100 100 100 99 100 100 100 100 92 100 100 79 60 42 28 26 38 34 42 43 42 44 43 57 51 36 63 67 80 84 61 46 30 33
3 6 10 16 21 29 38 55 62 73 96 99 100 100 100 98 100 100 100 100 100 100 100 96 76 52 45 38 49 56 53 50 52 53 60 69 62 66 79 81 73 58 46 33 27 40 64
3 3 4 7 11 20 31 42 69 96 100 100 100 100 100 100 95 98 100 100 88 100 100 95 82 42 59 66 65 54 43 41 43 38 35 31 30 37 44 34 34 34 30 33 49 74 58
2 3 4 4 5 7 16 23 38 56 88 85 98 87 100 100 99 100 100 100 100 100 100 100 59 48 81 73 56 40 31 32 27 24 26 29 27 24 24 26 31 35 36 53 75 53 62
2 2 2 4 4 4 6 6 24 42 50 63 68 83 99 97 100 97 100 100 100 100 100 85 42 64 97 63 45 34 28 27 34 42 47 42 34 32 36 37 35 44 68 71 58 47 64
2 2 2 2 2 4 5 5 9 13 17 28 51 68 52 83 100 97 100 100 100 95 79 56 57 83 90 52 38 28 28 38 51 46 53 42 28 28 32 33 62 70 56 51 56 67 70
1 2 2 2 2 2 4 5 5 7 10 28 38 35 61 81 100 98 100 100 100 100 100 68 68 91 89 47 40 26 30 51 55 56 51 38 32 44 47 61 67 53 54 62 72 70 70
1 1 2 2 2 2 3 5 5 7 8 21 26 22 38 51 95 93 100 100 78 100 85 74 66 98 80 47 35 26 30 52 60 58 59 42 58 65 64 63 58 59 66 66 76 63 84
1 1 1 2 2 2 3 4 4 6 11 14 18 30 30 32 48 98 95 77 92 92 98 80 79 97 68 45 33 28 32 51 63 58 60 46 58 81 64 60 65 65 67 66 68 65 82
1 1 1 1 2 2 3 3 4 7 12 13 19 21 37 44 50 47 52 84 74 91 99 100 95 95 65 42 45 29 33 40 50 48 59 58 58 76 76 75 74 74 73 76 76 80 85
1 1 2 2 2 2 3 3 5 10 14 18 24 29 33 45 63 58 62 64 61 100 100 100 95 88 75 46 45 32 31 47 49 42 54 68 72 73 81 84 85 80 75 76 81 90 98
2 2 2 2 2 2 3 5 9 12 18 21 26 38 41 65 41 49 32 48 91 100 99 100 100 93 85 51 63 61 37 50 52 52 54 77 88 86 83 83 88 88 89 79 90 100 83

GFSGBSN_250_rhum_036.txt.gz
RH
100 100 100 100 100 100 100 100 94 97 100 100 100 100 100 100 100 100 100 97 91 56 48 51 27 24 36 39 34 35 46 20 18 18 13 14 19 32 48 59 85 100 100 73 74 99 89
100 100 100 100 100 100 100 100 100 91 98 100 100 100 100 100 100 100 100 100 84 62 36 43 35 26 31 42 35 36 44 21 20 17 14 14 22 34 58 92 100 100 100 100 100 100 98
100 100 100 100 100 95 100 100 100 95 99 100 100 100 100 100 100 100 100 91 70 71 33 40 51 37 35 42 38 35 36 21 22 16 15 15 29 40 58 88 100 100 100 97 100 100 100
82 100 100 100 99 96 92 95 88 97 100 100 100 100 100 100 100 100 100 100 85 46 41 40 52 34 37 38 38 32 34 19 23 17 17 23 38 52 55 79 100 100 100 100 100 100 94
35 72 99 100 98 76 71 81 86 87 100 100 100 100 100 100 100 100 100 100 57 37 40 51 42 28 40 39 37 32 37 22 21 21 21 29 50 61 89 81 93 88 99 99 99 100 100
32 35 54 90 100 100 99 96 98 80 100 100 92 99 100 100 100 100 97 90 45 33 32 52 37 30 41 38 38 36 49 27 20 26 32 36 48 75 93 100 100 100 99 100 100 98 81
76 33 28 53 90 100 100 100 100 100 93 90 100 97 94 95 100 100 81 53 41 22 35 29 35 33 39 41 42 34 56 31 18 32 43 52 58 82 100 95 100 94 100 100 100 78 73
78 55 50 41 60 98 100 100 100 100 100 97 94 100 100 100 100 82 65 52 33 27 36 30 38 32 46 41 40 36 61 39 19 33 46 54 70 75 92 94 90 100 100 100 100 92 94
37 100 80 61 49 59 98 100 100 100 100 100 100 100 93 93 95 85 60 42 33 30 30 36 34 34 39 36 43 34 77 47 26 26 44 67 77 85 70 96 96 100 93 100 99 98 100
27 42 85 80 82 57 56 91 100 100 100 100 100 100 99 97 82 73 64 41 38 32 35 40 35 39 44 38 50 41 57 58 29 20 50 62 77 94 90 98 100 100 100 90 100 100 100
32 34 35 62 77 85 65 51 80 100 100 100 100 100 99 97 86 72 69 48 34 39 42 40 38 42 50 40 45 43 53 58 44 20 48 60 76 77 79 83 85 99 98 85 100 100 98
35 46 43 33 64 79 65 78 55 91 100 100 100 100 100 99 72 62 82 62 43 45 48 49 45 45 52 47 38 43 45 67 56 28 28 68 59 57 63 78 83 80 73 93 100 100 78
27 31 57 34 34 58 56 49 60 62 84 81 88 99 100 99 69 52 87 97 62 50 54 50 64 50 55 50 38 50 49 59 56 27 21 48 74 84 98 98 81 80 79 81 94 100 75
22 26 32 36 47 44 47 39 58 80 57 59 58 54 62 49 38 40 76 75 72 82 54 56 68 64 56 54 47 52 49 62 69 39 21 32 56 86 83 84 91 95 84 99 98 93 71
19 23 25 28 55 49 44 38 43 49 79 77 56 65 56 54 47 58 42 47 98 94 56 49 62 76 48 56 48 46 76 63 51 37 24 26 42 71 93 89 84 90 85 75 80 78 77
10 17 18 24 27 39 39 42 37 53 54 70 71 68 86 77 64 72 65 56 86 100 73 66 77 69 56 67 52 42 59 64 64 52 26 25 30 54 59 83 87 80 76 100 100 100 79
3 8 14 18 26 25 30 37 36 49 53 56 78 74 99 78 86 82 78 76 100 100 72 84 76 59 54 66 46 42 52 60 83 49 34 19 22 29 32 55 71 89 79 71 89 91 71
4 3 6 13 18 22 22 29 35 47 58 56 52 74 85 74 72 80 89 97 100 87 84 81 71 70 75 58 41 59 56 70 56 47 32 24 18 22 21 24 37 48 70 72 73 70 65
3 3 3 6 14 18 21 23 32 38 54 55 49 74 83 62 73 100 100 92 100 98 100 99 100 97 81 62 49 62 67 66 78 57 38 35 31 21 19 19 18 32 29 28 47 43 40
3 3 3 3 5 13 19 20 24 32 42 45 43 48 60 43 62 76 91 92 100 100 97 100 100 88 71 71 57 49 86 63 55 45 43 54 50 37 41 36 35 59 53 47 41 47 41
2 3 3 3 4 6 14 18 20 24 37 36 33 36 42 56 66 68 71 93 100 83 99 99 100 100 97 87 72 56 65 90 51 54 39 62 58 47 49 50 56 64 70 63 67 69 67
2 2 2 3 3 4 6 13 16 21 25 28 26 27 37 41 71 64 55 98 100 100 100 100 100 100 95 85 64 91 71 87 48 59 58 61 54 43 40 39 35 32 33 30 30 33 30
2 2 2 2 3 4 4 5 11 14 17 14 17 29 41 45 46 61 56 76 100 100 100 99 100 100 100 100 72 94 70 83 48 54 60 67 42 35 30 28 25 29 26 28 27 25 27
2 1 2 2 2 3 4 4 4 11 11 16 19 29 43 35 36 52 61 70 96 100 100 100 100 83 89 91 81 96 66 88 53 50 66 78 39 31 31 31 43 44 39 35 32 34 43
1 1 2 2 2 2 3 4 4 4 6 14 19 25 39 43 65 64 53 76 70 70 79 78 90 100 87 88 77 91 90 80 65 52 72 86 48 35 30 39 53 46 31 27 27 32 44
1 1 1 1 2 2 2 3 4 3 4 9 18 24 31 43 68 79 74 76 79 72 99 89 85 100 100 100 86 95 99 71 49 54 80 89 47 35 35 50 58 57 49 29 48 70 81
1 1 1 1 2 2 2 2 3 3 4 5 12 23 30 38 51 53 56 69 88 81 100 99 100 100 100 94 98 100 94 65 55 59 79 92 42 33 31 58 64 62 47 44 71 94 85
1 1 1 1 1 2 2 2 3 4 5 4 5 14 27 34 48 51 60 85 75 70 80 98 93 97 99 99 100 100 86 60 62 79 75 98 56 34 30 41 64 63 58 71 92 99 85
1 1 1 1 1 2 2 2 3 4 5 5 5 12 28 34 36 44 57 65 61 81 100 98 99 100 100 94 95 96 80 72 62 72 80 98 69 35 30 31 57 65 80 85 84 85 90

GFSGBSN_250_rhum_042.txt.gz
RH
45 56 43 48 26 34 44 58 50 90 99 93 99 98 100 100 100 87 99 86 100 100 95 75 73 97 100 100 100 84 52 27 18 20 19 19 16 31 30 28 30 42 66 75 100 100 100
30 47 39 35 47 56 43 42 38 62 96 100 99 96 100 92 100 96 84 92 100 100 93 86 84 100 100 96 100 75 51 25 18 19 22 21 19 39 35 34 42 56 71 93 99 100 100
59 38 35 49 82 96 62 70 50 49 57 95 100 100 100 100 100 100 100 100 100 100 83 91 89 100 91 97 93 66 52 22 19 19 24 23 18 40 50 50 61 75 70 100 87 88 100
100 99 77 100 100 92 100 67 74 53 58 67 90 100 100 100 100 100 100 100 100 100 89 97 92 100 92 83 84 71 45 24 22 22 24 24 20 41 58 69 75 99 78 94 100 100 100
100 97 100 94 84 92 82 57 100 55 61 69 66 72 88 98 100 100 100 100 100 100 100 98 100 100 82 72 68 70 45 28 24 24 28 26 22 43 65 76 76 100 93 84 99 100 100
62 51 61 54 58 58 57 100 91 96 63 65 77 75 55 78 99 100 100 100 92 85 99 100 100 97 81 78 79 75 39 26 24 24 30 33 22 41 52 84 98 100 96 86 82 100 99
70 87 80 100 92 94 100 68 73 59 47 51 48 72 51 44 86 100 100 89 76 82 100 100 100 100 85 87 90 88 40 25 23 24 32 32 24 42 45 83 98 94 99 88 100 100 100
100 100 100 100 100 100 91 92 82 66 41 32 34 49 48 40 53 100 97 85 100 100 100 100 100 95 100 93 88 88 41 28 25 25 36 31 27 34 48 62 73 89 100 100 100 100 98
100 100 100 100 100 100 94 81 93 83 78 57 40 46 59 51 42 98 94 100 100 100 100 100 100 94 98 87 94 89 65 34 28 26 32 29 28 22 51 64 74 71 73 99 100 100 90
71 67 77 71 71 61 63 50 37 49 46 64 56 58 55 58 43 98 100 100 100 100 100 100 87 92 100 92 99 91 76 45 36 28 31 27 28 24 39 50 86 80 77 96 100 100 87
38 37 34 46 56 48 44 47 41 35 38 43 49 37 43 53 48 93 100 100 100 100 100 100 100 100 100 100 100 91 73 54 40 37 31 31 25 27 28 52 63 99 95 80 96 99 85
18 21 21 24 26 29 30 32 30 34 35 47 36 36 36 42 41 52 97 100 100 100 100 100 100 100 100 99 100 89 74 64 38 41 38 35 27 29 22 51 58 80 100 99 85 100 100
11 13 15 16 18 23 24 28 32 41 43 36 37 40 36 40 37 45 52 100 99 100 100 100 100 100 100 100 100 91 74 78 51 45 40 39 30 34 26 33 61 66 95 98 99 91 98
5 5 7 8 11 15 19 23 31 35 40 49 44 56 45 42 39 35 41 83 100 100 100 100 100 100 100 100 100 93 65 77 53 46 40 40 38 34 36 26 44 59 83 96 90 92 88
6 7 6 6 6 7 12 17 22 27 37 42 41 43 62 58 36 42 34 66 100 100 100 100 100 100 100 100 100 94 74 81 50 46 46 48 43 37 36 29 26 52 56 90 100 94 90
4 4 6 6 6 6 7 10 15 20 34 36 38 38 55 84 74 56 36 47 82 99 100 100 100 100 99 99 100 90 78 88 73 60 55 49 40 36 36 34 23 22 48 72 84 87 95
3 4 4 4 6 6 7 7 9 13 24 33 35 31 50 84 96 55 56 40 62 81 100 100 100 100 100 100 100 98 82 82 88 67 58 54 46 40 38 36 27 21 33 56 80 95 96
2 3 3 4 4 5 6 8 7 8 14 23 27 27 40 63 53 86 85 56 57 79 90 100 100 100 100 100 97 89 82 92 78 61 65 54 51 41 38 40 28 26 19 25 52 95 98
2 2 2 3 3 4 5 6 7 6 7 15 21 26 32 45 31 84 100 80 86 76 79 98 100 100 100 100 97 100 99 84 73 59 67 55 52 45 40 43 33 32 31 22 25 29 45
2 2 2 2 3 3 4 5 7 7 6 9 15 20 28 25 38 64 100 100 100 79 78 100 99 100 100 100 100 100 100 87 76 72 61 45 46 47 41 42 39 30 56 35 22 23 23
2 2 2 2 2 2 3 4 6 7 6 6 10 16 23 23 27 54 95 100 100 83 73 98 87 100 100 100 100 100 100 89 99 70 58 45 60 63 44 47 41 32 44 58 62 41 40
1 2 2 2 3 2 2 4 5 6 7 5 4 12 17 27 34 41 87 100 100 100 84 97 90 100 100 100 100 100 93 100 91 77 60 58 67 62 49 55 42 36 38 48 46 54 56
1 1 2 2 2 2 2 3 4 6 6 5 4 7 13 25 28 33 58 100 100 100 100 100 100 100 100 100 100 99 90 87 90 68 68 62 61 79 64 58 46 36 32 46 44 39 35
1 1 2 2 2 2 2 3 3 5 6 5 4 6 10 16 23 37 82 99 100 100 100 100 100 100 100 100 100 100 94 87 82 72 80 73 69 75 59 52 48 36 43 50 43 36 33
1 2 2 2 2 2 2 3 3 5 5 5 4 5 10 17 31 41 58 80 100 100 94 100 100 100 100 100 97 91 91 63 60 93 93 81 88 74 63 60 57 42 37 51 46 38 40
2 2 2 2 2 2 2 2 3 4 5 5 5 5 8 16 28 49 57 71 100 100 100 100 100 100 94 98 97 84 82 100 95 92 95 99 84 70 76 70 66 44 50 63 50 38 44
2 2 3 2 2 2 2 2 2 3 5 5 5 5 5 10 27 36 50 70 100 100 100 100 100 100 100 100 100 100 100 100 98 100 100 83 79 81 74 65 64 52 51 66 64 37 34
2 2 2 2 2 2 2 2 2 3 4 5 5 5 4 7 23 34 55 75 100 100 100 100 100 100 100 99 100 100 100 100 100 100 92 98 88 93 70 73 70 54 50 64 75 58 39
2 3 3 2 2 2 2 2 2 3 4 4 4 5 5 7 19 28 43 94 100 100 100 100 100 100 100 100 100 100 100 100 100 100 100 100 87 78 74 86 72 60 53 53 78 80 67

GFSGBSN_250_rhum_045.txt.gz
RH
41 37 33 32 37 54 100 100 100 99 51 35 47 59 43 100 98 100 100 96 77 58 87 87 78 93 95 96 95 73 60 85 89 64 54 43 18 18 19 29 36 40 50 77 100 100 99
42 57 46 44 38 47 97 100 92 92 38 36 61 70 51 55 100 100 100 100 100 100 96 100 98 95 93 96 99 87 69 85 74 65 55 40 18 20 20 32 46 54 68 95 100 100 100
64 63 72 58 48 38 60 78 47 61 52 57 69 71 58 35 62 100 100 100 100 100 100 100 100 100 100 100 88 85 83 90 79 76 55 36 18 20 22 31 55 61 80 89 100 100 96
69 55 100 86 65 70 51 62 53 53 57 42 92 82 64 46 51 69 99 100 100 100 100 100 100 100 100 100 77 82 92 91 92 86 47 33 20 20 23 31 51 60 98 81 99 87 76
46 90 100 100 97 100 98 63 86 93 75 95 100 87 79 51 51 64 82 90 91 100 100 100 100 100 92 78 76 75 93 96 95 78 47 35 19 21 23 28 51 62 96 99 93 83 74
69 94 100 100 100 98 100 100 100 100 100 100 100 93 87 53 71 50 73 80 73 75 96 100 100 96 82 88 76 80 93 99 89 81 63 41 21 21 23 25 52 65 85 94 92 88 89
100 100 91 94 100 97 95 73 88 84 83 60 57 64 71 78 93 82 56 55 68 68 65 99 100 81 92 81 75 90 90 92 86 88 66 44 25 22 24 28 48 62 75 99 98 82 70
53 64 52 66 80 72 54 53 45 49 55 43 54 55 90 100 100 88 50 44 39 60 49 72 99 88 100 90 88 98 92 82 93 81 65 46 29 25 25 30 47 68 77 77 99 100 100
57 63 58 49 46 49 50 51 72 78 76 100 100 100 98 100 88 80 74 64 54 56 51 63 100 100 93 100 97 100 89 87 93 82 68 48 36 26 25 28 47 60 65 90 92 87 100
100 100 100 100 100 97 100 99 100 100 100 100 100 100 100 96 91 80 74 56 52 59 58 56 89 100 100 97 100 86 82 81 98 90 75 54 44 26 25 30 35 55 70 79 100 94 98
78 100 100 100 100 100 100 100 100 100 100 100 100 100 99 97 94 87 70 51 50 59 50 65 94 100 100 98 100 100 89 74 95 100 81 61 46 32 25 28 30 31 68 82 92 99 97
31 34 41 59 79 71 54 86 90 97 93 85 87 63 63 57 50 58 50 38 41 47 47 71 100 100 100 100 100 100 100 86 92 100 86 61 37 34 28 28 31 29 62 73 98 99 94
15 15 16 17 23 30 41 48 51 45 45 45 40 38 39 39 41 44 36 35 40 42 40 48 100 98 89 84 95 100 99 91 82 99 86 52 42 39 30 29 31 29 39 74 83 94 98
7 7 8 9 12 13 15 17 24 29 28 37 38 40 39 38 43 37 36 38 47 51 52 43 69 100 91 95 100 100 100 91 82 89 99 64 53 44 31 30 30 33 26 60 72 88 99
7 7 7 7 7 7 7 9 14 16 21 26 34 33 36 39 48 40 37 37 53 60 64 49 50 73 87 100 100 100 100 98 86 90 100 72 65 49 34 32 31 35 28 28 69 77 99
5 5 5 6 6 6 7 7 8 8 12 17 18 26 31 43 48 45 38 36 68 72 74 66 46 50 79 100 100 100 100 100 100 95 94 82 68 50 37 34 30 36 36 27 42 78 92
4 4 4 4 4 5 6 6 6 7 8 10 12 18 26 38 45 35 30 38 79 66 82 84 56 45 74 100 100 100 100 100 100 91 96 78 66 50 43 39 32 34 39 35 27 72 85
4 3 3 4 3 3 4 5 6 6 7 7 8 8 15 27 31 21 31 55 72 67 77 100 92 64 78 100 93 99 100 100 100 100 95 77 71 59 49 40 33 36 42 41 28 33 87
3 2 3 3 3 3 3 4 5 6 6 6 7 8 10 18 21 19 34 45 66 67 89 100 100 82 98 100 100 100 100 100 100 100 86 79 80 68 51 44 35 36 46 45 34 31 41
2 2 2 3 3 3 3 3 4 4 5 6 6 6 8 8 12 22 32 40 54 65 93 100 100 93 98 100 100 100 100 100 100 100 90 88 86 67 57 44 36 40 45 43 38 49 44
2 2 2 2 3 3 4 4 3 3 4 5 5 5 6 4 6 17 28 39 44 64 80 97 100 99 100 100 100 100 100 100 100 100 98 89 96 72 67 41 40 45 42 44 38 46 49
2 2 2 2 2 3 3 4 4 3 4 4 5 6 6 5 10 16 27 42 46 68 88 99 100 100 100 100 100 100 100 100 100 98 100 100 98 66 65 43 43 55 36 45 39 44 54
1 1 1 1 2 2 3 3 3 2 2 3 5 6 6 6 6 11 25 50 51 69 90 100 100 100 100 100 100 100 100 100 99 95 99 92 91 76 60 46 57 65 44 42 48 40 59
1 1 1 1 2 2 3 3 2 2 3 4 6 5 6 6 5 12 30 49 54 60 86 100 100 100 100 100 100 100 100 90 94 93 96 100 99 70 54 56 79 55 46 44 52 40 51
1 1 1 2 2 2 2 2 2 3 3 4 5 5 6 5 9 16 26 45 53 66 74 100 100 100 100 100 100 100 100 90 100 100 100 93 81 58 61 70 81 76 48 46 42 54 46
1 1 1 1 2 2 2 2 3 4 3 4 4 4 6 5 7 14 27 39 52 61 64 100 100 100 100 100 100 100 100 100 100 100 99 76 74 69 74 87 81 83 64 49 49 57 43
1 1 1 2 2 2 2 3 3 4 4 3 4 5 6 6 7 12 24 39 55 75 83 100 100 100 100 100 100 100 100 100 100 95 92 82 79 84 86 89 90 100 60 56 52 61 50
2 2 2 2 2 3 3 3 4 4 3 3 4 5 7 7 7 12 24 40 53 83 92 100 100 100 100 100 100 100 100 99 100 85 99 100 99 84 82 78 97 67 82 57 65 55 55
2 2 2 3 3 3 3 3 4 4 3 3 4 6 8 7 7 13 22 36 52 80 93 100 100 100 100 100 100 100 100 100 100 100 100 100 100 100 65 74 82 89 70 75 69 63 56

GFSGBSN_250_rhum_048.txt.gz
RH
75 46 56 40 28 29 27 29 32 34 95 100 100 100 71 100 63 45 40 40 64 98 100 100 97 100 88 99 70 77 100 79 54 61 71 79 77 52 38 19 17 30 51 62 82 87 98
100 83 64 59 46 44 30 32 37 36 52 100 100 100 98 82 53 40 38 50 39 86 100 100 97 95 82 100 86 100 100 71 66 65 82 80 72 51 39 20 18 30 58 83 96 100 88
71 61 45 89 81 75 51 47 35 44 40 86 100 100 100 98 84 71 60 53 63 42 100 100 100 100 86 79 85 100 94 73 58 72 97 84 67 51 37 23 20 29 56 94 100 100 95
79 94 65 98 98 94 87 70 39 45 35 59 100 100 94 97 96 84 83 46 79 41 61 99 99 98 87 83 73 64 91 72 61 92 98 86 67 53 36 24 22 33 58 73 95 87 80
97 89 76 89 100 100 100 99 60 64 39 49 75 97 100 94 84 91 100 82 76 53 41 77 91 79 87 86 90 99 87 72 61 97 94 90 70 59 39 25 22 42 51 69 87 100 88
92 100 86 95 62 69 100 100 89 50 74 52 56 89 100 100 100 100 100 90 80 68 54 69 62 58 68 71 88 85 77 66 75 87 89 87 72 64 45 28 24 38 47 64 72 92 81
91 100 100 99 100 96 96 100 96 58 100 79 65 100 100 100 100 100 100 100 84 55 66 91 52 49 43 52 94 100 64 80 91 84 89 91 84 71 53 29 25 26 49 57 65 76 85
97 88 89 81 66 83 65 57 49 63 96 100 99 100 100 100 100 100 98 99 92 51 78 98 71 62 50 48 77 90 63 93 79 84 91 97 92 74 55 32 27 26 40 53 69 76 61
72 68 64 51 45 49 48 69 100 100 96 100 99 88 89 98 99 68 79 88 82 40 68 98 78 77 64 50 63 91 64 85 82 91 96 100 92 74 52 34 29 29 32 53 59 82 100
57 58 50 48 49 63 57 54 49 54 73 100 87 77 77 79 84 69 53 100 99 62 96 90 82 76 65 55 60 100 61 94 100 90 98 100 90 77 52 36 31 26 29 49 61 70 100
61 55 57 54 55 63 50 55 49 55 48 43 62 58 52 72 67 51 43 99 97 100 84 100 100 100 91 67 46 78 70 95 99 96 90 100 96 86 59 42 32 29 30 35 65 69 90
45 46 55 66 64 73 76 95 100 100 92 86 58 62 60 46 56 48 55 58 100 100 100 100 100 96 79 67 54 66 74 74 100 100 88 94 98 99 70 48 34 33 30 30 48 75 74
26 23 22 25 30 39 46 69 72 85 75 100 100 100 94 96 100 100 100 100 100 100 100 100 98 69 67 69 61 75 86 72 93 91 81 91 88 96 77 53 36 36 30 32 36 57 76
15 15 15 15 15 16 18 22 31 40 51 72 77 100 100 100 100 100 93 100 98 93 86 92 75 58 47 64 74 89 100 93 96 94 75 85 85 96 83 59 42 39 30 34 32 39 74
8 9 10 10 10 10 11 13 15 17 21 30 42 59 85 99 100 100 100 94 77 77 67 86 69 48 54 65 94 100 90 100 100 82 92 80 89 94 88 62 45 42 32 37 41 34 58
8 8 8 8 8 8 7 7 7 9 13 16 18 22 37 59 92 94 97 74 89 77 67 57 53 45 63 72 81 84 97 82 89 91 87 99 100 94 92 67 51 46 37 36 40 47 41
8 7 6 6 6 6 6 6 7 7 7 7 9 14 20 26 40 58 34 46 61 50 49 51 49 47 65 80 86 100 100 97 79 74 85 100 94 95 93 71 61 49 43 36 40 46 46
7 7 8 7 6 5 5 6 6 6 6 6 6 6 11 16 19 17 18 37 43 38 43 48 49 51 59 99 99 100 100 100 79 100 100 92 86 100 97 80 69 53 45 38 40 41 52
5 5 5 5 5 6 6 6 6 5 5 5 6 7 7 8 8 9 16 19 31 35 40 49 48 53 61 97 100 100 100 100 86 100 86 83 100 96 100 78 70 60 45 36 38 46 48
5 4 4 4 4 5 5 5 6 5 4 4 4 5 5 7 6 5 11 12 20 34 38 49 51 61 65 100 100 100 100 100 100 100 96 83 100 100 96 73 80 67 47 36 39 44 45
3 3 3 3 3 3 3 4 4 4 4 3 2 3 5 6 6 7 7 10 18 31 38 46 51 60 69 100 100 100 100 100 96 100 99 76 99 100 90 78 89 70 53 38 40 41 54
2 2 2 2 2 2 2 3 4 4 4 2 2 3 5 6 7 6 6 8 13 27 39 43 58 64 95 100 100 100 100 100 100 100 100 97 100 100 100 88 76 77 55 42 40 45 44
2 2 2 2 2 2 2 2 2 3 3 2 3 4 5 6 6 5 6 6 14 24 43 45 58 70 89 100 100 100 100 100 100 100 100 100 100 100 98 79 84 93 53 46 44 46 39
2 2 1 2 2 2 2 2 2 2 2 3 5 7 6 5 4 6 9 8 10 22 40 50 48 65 81 100 100 100 100 100 99 100 100 100 100 99 96 77 92 85 62 47 52 48 39
1 1 1 1 1 1 2 2 2 2 2 4 6 6 5 5 8 8 9 8 12 21 40 48 56 70 84 85 88 100 100 100 84 100 100 100 100 100 82 98 97 97 62 48 53 54 36
1 1 1 1 1 1 2 2 2 2 3 4 7 8 5 5 8 8 9 8 10 20 37 47 71 79 79 75 73 98 100 100 99 100 100 100 100 99 100 100 98 100 61 53 48 73 40
1 1 1 1 1 2 2 2 2 3 4 6 8 8 5 7 6 7 8 8 12 22 36 62 68 80 72 65 69 95 100 100 100 100 100 100 100 100 100 93 98 100 84 55 51 60 51
2 1 1 1 2 2 2 2 2 4 5 6 7 5 6 7 6 7 8 8 12 22 43 63 53 67 72 66 74 87 100 100 100 100 100 100 100 100 100 88 98 100 63 56 61 68 62
2 2 2 2 2 2 2 3 4 5 6 6 4 5 7 6 7 8 9 10 12 21 41 51 62 69 66 65 82 92 99 98 100 100 100 100 100 100 100 94 96 76 66 74 68 71 84